Aviation Digital Data Service (ADDS)

Output produced by METARs form (1827 UTC 16 August 2018)
found at http://www.aviationweather.gov/adds/metars/
 
ORBD 161755Z 27009KT 9000 HZ CLR 34/08 A2957 RMK WND DATA ALSTG ESTMD
TAF ORBD 161100Z 1611/1717 31015G20KT 8000 BLDUHZ SKC QNH2948INS WND 260V340 
     BECMG 1614/1615 29009KT 8000 DUHZ SKC QNH2950INS 
     BECMG 1706/1707 32013G20KT 8000 HZ SKC QNH2950INS WND 29009KT AFT 1715 TX45/1712Z TN28/1703Z
       
ORBI 161800Z 28010KT CAVOK 36/07 Q1002 NOSIG
TAF ORBI 161700Z 1618/1718 30010KT 8000 NSC
       
ORER 161800Z 27010KT CAVOK 35/04 Q1005 NOSIG
TAF ORER 161700Z 1618/1718 27007KT 8000 NSC
       
ORMM 161800Z 27006KT CAVOK 35/06 Q0999 NOSIG
TAF ORMM 161600Z 1618/1718 28010KT CAVOK
       
ORNI 161800Z 34007KT 8000 NSC 38/09 Q1001 NOSIG
TAF ORNI 161700Z 1618/1718 32010KT 8000 NSC
       
ORSU 161800Z 30006KT CAVOK 32/06 Q1009
TAF ORSU 161700Z 1618/1718 27008KT 7000 NSC 
     BECMG 1703/1705 16008KT 7000 NSC 
     BECMG 1710/1712 23010KT CAVOK
       
ORBD 161755Z 27009KT 9000 HZ CLR 34/08 A2957 RMK WND DATA ALSTG ESTMD
TAF ORBD 161100Z 1611/1717 31015G20KT 8000 BLDUHZ SKC QNH2948INS WND 260V340 
     BECMG 1614/1615 29009KT 8000 DUHZ SKC QNH2950INS 
     BECMG 1706/1707 32013G20KT 8000 HZ SKC QNH2950INS WND 29009KT AFT 1715 TX45/1712Z TN28/1703Z
       
ORBI 161800Z 28010KT CAVOK 36/07 Q1002 NOSIG
TAF ORBI 161700Z 1618/1718 30010KT 8000 NSC
       
ORER 161800Z 27010KT CAVOK 35/04 Q1005 NOSIG
TAF ORER 161700Z 1618/1718 27007KT 8000 NSC
       
ORMM 161800Z 27006KT CAVOK 35/06 Q0999 NOSIG
TAF ORMM 161600Z 1618/1718 28010KT CAVOK
       
ORNI 161800Z 34007KT 8000 NSC 38/09 Q1001 NOSIG
TAF ORNI 161700Z 1618/1718 32010KT 8000 NSC
       
ORSU 161800Z 30006KT CAVOK 32/06 Q1009
TAF ORSU 161700Z 1618/1718 27008KT 7000 NSC 
     BECMG 1703/1705 16008KT 7000 NSC 
     BECMG 1710/1712 23010KT CAVOK
       
ORBD 161755Z 27009KT 9000 HZ CLR 34/08 A2957 RMK WND DATA ALSTG ESTMD
TAF ORBD 161100Z 1611/1717 31015G20KT 8000 BLDUHZ SKC QNH2948INS WND 260V340 
     BECMG 1614/1615 29009KT 8000 DUHZ SKC QNH2950INS 
     BECMG 1706/1707 32013G20KT 8000 HZ SKC QNH2950INS WND 29009KT AFT 1715 TX45/1712Z TN28/1703Z
       
ORBI 161800Z 28010KT CAVOK 36/07 Q1002 NOSIG
TAF ORBI 161700Z 1618/1718 30010KT 8000 NSC
       
ORER 161800Z 27010KT CAVOK 35/04 Q1005 NOSIG
TAF ORER 161700Z 1618/1718 27007KT 8000 NSC
       
ORMM 161800Z 27006KT CAVOK 35/06 Q0999 NOSIG
TAF ORMM 161600Z 1618/1718 28010KT CAVOK
       
ORNI 161800Z 34007KT 8000 NSC 38/09 Q1001 NOSIG
TAF ORNI 161700Z 1618/1718 32010KT 8000 NSC
       
ORSU 161800Z 30006KT CAVOK 32/06 Q1009
TAF ORSU 161700Z 1618/1718 27008KT 7000 NSC 
     BECMG 1703/1705 16008KT 7000 NSC 
     BECMG 1710/1712 23010KT CAVOK
       
ORBD 161755Z 27009KT 9000 HZ CLR 34/08 A2957 RMK WND DATA ALSTG ESTMD
TAF ORBD 161100Z 1611/1717 31015G20KT 8000 BLDUHZ SKC QNH2948INS WND 260V340 
     BECMG 1614/1615 29009KT 8000 DUHZ SKC QNH2950INS 
     BECMG 1706/1707 32013G20KT 8000 HZ SKC QNH2950INS WND 29009KT AFT 1715 TX45/1712Z TN28/1703Z
       
ORBI 161800Z 28010KT CAVOK 36/07 Q1002 NOSIG
TAF ORBI 161700Z 1618/1718 30010KT 8000 NSC
       
ORER 161800Z 27010KT CAVOK 35/04 Q1005 NOSIG
TAF ORER 161700Z 1618/1718 27007KT 8000 NSC
       
ORMM 161800Z 27006KT CAVOK 35/06 Q0999 NOSIG
TAF ORMM 161600Z 1618/1718 28010KT CAVOK
       
ORNI 161800Z 34007KT 8000 NSC 38/09 Q1001 NOSIG
TAF ORNI 161700Z 1618/1718 32010KT 8000 NSC
       
ORSU 161800Z 30006KT CAVOK 32/06 Q1009
TAF ORSU 161700Z 1618/1718 27008KT 7000 NSC 
     BECMG 1703/1705 16008KT 7000 NSC 
     BECMG 1710/1712 23010KT CAVOK
       
ORBD 161755Z 27009KT 9000 HZ CLR 34/08 A2957 RMK WND DATA ALSTG ESTMD
TAF ORBD 161100Z 1611/1717 31015G20KT 8000 BLDUHZ SKC QNH2948INS WND 260V340 
     BECMG 1614/1615 29009KT 8000 DUHZ SKC QNH2950INS 
     BECMG 1706/1707 32013G20KT 8000 HZ SKC QNH2950INS WND 29009KT AFT 1715 TX45/1712Z TN28/1703Z
       
ORBI 161800Z 28010KT CAVOK 36/07 Q1002 NOSIG
TAF ORBI 161700Z 1618/1718 30010KT 8000 NSC
       
ORER 161800Z 27010KT CAVOK 35/04 Q1005 NOSIG
TAF ORER 161700Z 1618/1718 27007KT 8000 NSC
       
ORMM 161800Z 27006KT CAVOK 35/06 Q0999 NOSIG
TAF ORMM 161600Z 1618/1718 28010KT CAVOK
       
ORNI 161800Z 34007KT 8000 NSC 38/09 Q1001 NOSIG
TAF ORNI 161700Z 1618/1718 32010KT 8000 NSC
       
ORSU 161800Z 30006KT CAVOK 32/06 Q1009
TAF ORSU 161700Z 1618/1718 27008KT 7000 NSC 
     BECMG 1703/1705 16008KT 7000 NSC 
     BECMG 1710/1712 23010KT CAVOK
       
ORMM 161800Z 27006KT CAVOK 35/06 Q0999 NOSIG
TAF ORMM 161600Z 1618/1718 28010KT CAVOK
       
ORBD 161755Z 27009KT 9000 HZ CLR 34/08 A2957 RMK WND DATA ALSTG ESTMD
TAF ORBD 161100Z 1611/1717 31015G20KT 8000 BLDUHZ SKC QNH2948INS WND 260V340 
     BECMG 1614/1615 29009KT 8000 DUHZ SKC QNH2950INS 
     BECMG 1706/1707 32013G20KT 8000 HZ SKC QNH2950INS WND 29009KT AFT 1715 TX45/1712Z TN28/1703Z
       
ORBI 161800Z 28010KT CAVOK 36/07 Q1002 NOSIG
TAF ORBI 161700Z 1618/1718 30010KT 8000 NSC
       
ORER 161800Z 27010KT CAVOK 35/04 Q1005 NOSIG
TAF ORER 161700Z 1618/1718 27007KT 8000 NSC
       
ORMM 161800Z 27006KT CAVOK 35/06 Q0999 NOSIG
TAF ORMM 161600Z 1618/1718 28010KT CAVOK
       
ORNI 161800Z 34007KT 8000 NSC 38/09 Q1001 NOSIG
TAF ORNI 161700Z 1618/1718 32010KT 8000 NSC
       
ORSU 161800Z 30006KT CAVOK 32/06 Q1009
TAF ORSU 161700Z 1618/1718 27008KT 7000 NSC 
     BECMG 1703/1705 16008KT 7000 NSC 
     BECMG 1710/1712 23010KT CAVOK
       
ORBD 161755Z 27009KT 9000 HZ CLR 34/08 A2957 RMK WND DATA ALSTG ESTMD
TAF ORBD 161100Z 1611/1717 31015G20KT 8000 BLDUHZ SKC QNH2948INS WND 260V340 
     BECMG 1614/1615 29009KT 8000 DUHZ SKC QNH2950INS 
     BECMG 1706/1707 32013G20KT 8000 HZ SKC QNH2950INS WND 29009KT AFT 1715 TX45/1712Z TN28/1703Z
       
ORBI 161800Z 28010KT CAVOK 36/07 Q1002 NOSIG
TAF ORBI 161700Z 1618/1718 30010KT 8000 NSC
       
ORER 161800Z 27010KT CAVOK 35/04 Q1005 NOSIG
TAF ORER 161700Z 1618/1718 27007KT 8000 NSC
       
ORMM 161800Z 27006KT CAVOK 35/06 Q0999 NOSIG
TAF ORMM 161600Z 1618/1718 28010KT CAVOK
       
ORNI 161800Z 34007KT 8000 NSC 38/09 Q1001 NOSIG
TAF ORNI 161700Z 1618/1718 32010KT 8000 NSC
       
ORSU 161800Z 30006KT CAVOK 32/06 Q1009
TAF ORSU 161700Z 1618/1718 27008KT 7000 NSC 
     BECMG 1703/1705 16008KT 7000 NSC 
     BECMG 1710/1712 23010KT CAVOK
       
ORBD 161755Z 27009KT 9000 HZ CLR 34/08 A2957 RMK WND DATA ALSTG ESTMD
TAF ORBD 161100Z 1611/1717 31015G20KT 8000 BLDUHZ SKC QNH2948INS WND 260V340 
     BECMG 1614/1615 29009KT 8000 DUHZ SKC QNH2950INS 
     BECMG 1706/1707 32013G20KT 8000 HZ SKC QNH2950INS WND 29009KT AFT 1715 TX45/1712Z TN28/1703Z
       
ORBI 161800Z 28010KT CAVOK 36/07 Q1002 NOSIG
TAF ORBI 161700Z 1618/1718 30010KT 8000 NSC
       
ORER 161800Z 27010KT CAVOK 35/04 Q1005 NOSIG
TAF ORER 161700Z 1618/1718 27007KT 8000 NSC
       
ORMM 161800Z 27006KT CAVOK 35/06 Q0999 NOSIG
TAF ORMM 161600Z 1618/1718 28010KT CAVOK
       
ORNI 161800Z 34007KT 8000 NSC 38/09 Q1001 NOSIG
TAF ORNI 161700Z 1618/1718 32010KT 8000 NSC
       
ORSU 161800Z 30006KT CAVOK 32/06 Q1009
TAF ORSU 161700Z 1618/1718 27008KT 7000 NSC 
     BECMG 1703/1705 16008KT 7000 NSC 
     BECMG 1710/1712 23010KT CAVOK
       
ORBD 161755Z 27009KT 9000 HZ CLR 34/08 A2957 RMK WND DATA ALSTG ESTMD
TAF ORBD 161100Z 1611/1717 31015G20KT 8000 BLDUHZ SKC QNH2948INS WND 260V340 
     BECMG 1614/1615 29009KT 8000 DUHZ SKC QNH2950INS 
     BECMG 1706/1707 32013G20KT 8000 HZ SKC QNH2950INS WND 29009KT AFT 1715 TX45/1712Z TN28/1703Z
       
ORBI 161800Z 28010KT CAVOK 36/07 Q1002 NOSIG
TAF ORBI 161700Z 1618/1718 30010KT 8000 NSC
       
ORER 161800Z 27010KT CAVOK 35/04 Q1005 NOSIG
TAF ORER 161700Z 1618/1718 27007KT 8000 NSC
       
ORMM 161800Z 27006KT CAVOK 35/06 Q0999 NOSIG
TAF ORMM 161600Z 1618/1718 28010KT CAVOK
       
ORNI 161800Z 34007KT 8000 NSC 38/09 Q1001 NOSIG
TAF ORNI 161700Z 1618/1718 32010KT 8000 NSC
       
ORSU 161800Z 30006KT CAVOK 32/06 Q1009
TAF ORSU 161700Z 1618/1718 27008KT 7000 NSC 
     BECMG 1703/1705 16008KT 7000 NSC 
     BECMG 1710/1712 23010KT CAVOK